User: anonymous   Login
Location: Heiligenberg
(48.5381°N, 7.3897°E)
Time: 01:00:46
(UTC+00:00)
Language:

Cosmos 1461 - Orbit

View from above orbital plane
View from above orbital plane
View from above satellite
View from above satellite

Ground track
Ground track

The orbit data is extracted from the following two-line orbital elements,

1 14064U 83044A   22225.36691496  .00002823  00000-0  23938-3 0  9994
2 14064  64.9995 208.2345 0092770   7.0348 353.2045 14.96787931  4764
Epoch (UTC): 13 August 2022 08:48:21
Eccentricity: 0.0092770
inclination: 64.9995°
perigee height: 512 km
apogee height: 641 km
right ascension of ascending node: 208.2345°
argument of perigee: 7.0348°
revolutions per day: 14.96787931
mean anomaly at epoch: 353.2045°
orbit number at epoch: 476

The dashed part of the orbit path shows where the satellite is in the earth's shadow,  

DLR